This is the latest recevied weather packets stored in our database for station/object W7TRD. If no packets are shown the sender has not sent any weather packets the latest 10 day(s).
| Time | Temp. | Humidity | Pressure | Rain* | Wind** | Luminosity | Snow |
|---|---|---|---|---|---|---|---|
| 1777575458 | 23.33° C | 46% | 1018.8 hPa | 0 mm | - | 475 W/m² | - |
| 1777575154 | 22.78° C | 48% | 1018.7 hPa | 0 mm | - | 469 W/m² | - |
| 1777574850 | 22.78° C | 48% | 1018.9 hPa | 0 mm | - | 435 W/m² | - |
| 1777574548 | 22.78° C | 49% | 1018.9 hPa | 0 mm | - | 388 W/m² | - |
| 1777574244 | 23.33° C | 48% | 1018.9 hPa | 0 mm | - | 456 W/m² | - |
| 1777573939 | 22.78° C | 49% | 1019 hPa | 0 mm | - | 455 W/m² | - |
| 1777573634 | 23.33° C | 47% | 1019 hPa | 0 mm | - | 562 W/m² | - |
| 1777573331 | 22.78° C | 50% | 1019.1 hPa | 0 mm | - | 744 W/m² | - |
| 1777573026 | 22.22° C | 49% | 1019.2 hPa | 0 mm | - | 669 W/m² | - |
| 1777572723 | 22.22° C | 49% | 1019.2 hPa | 0 mm | - | 696 W/m² | - |
| 1777572418 | 21.67° C | 49% | 1019.2 hPa | 0 mm | - | 523 W/m² | - |
| 1777572115 | 21.67° C | 50% | 1019.3 hPa | 0 mm | - | 692 W/m² | - |
| 1777571815 | 21.11° C | 50% | 1019.2 hPa | 0 mm | - | 591 W/m² | - |
| 1777571511 | 20.56° C | 52% | 1019.4 hPa | 0 mm | - | 573 W/m² | - |
| 1777571208 | 19.44° C | 55% | 1019.3 hPa | 0 mm | - | 560 W/m² | - |
| 1777570904 | 19.44° C | 55% | 1019.5 hPa | 0 mm | - | 479 W/m² | - |
| 1777570600 | 19.44° C | 55% | 1019.5 hPa | 0 mm | - | 421 W/m² | - |
| 1777570297 | 18.89° C | 57% | 1019.5 hPa | 0 mm | - | 579 W/m² | - |
| 1777569992 | 18.33° C | 58% | 1019.6 hPa | 0 mm | - | 329 W/m² | - |
| 1777569688 | 18.33° C | 59% | 1019.6 hPa | 0 mm | - | 483 W/m² | - |
| 1777569384 | 17.78° C | 59% | 1019.7 hPa | 0 mm | - | 239 W/m² | - |
| 1777569081 | 17.78° C | 64% | 1019.7 hPa | 0 mm | - | 241 W/m² | - |
| 1777568778 | 17.78° C | 60% | 1019.6 hPa | 0 mm | - | 195 W/m² | - |
| 1777568476 | 17.78° C | 60% | 1019.9 hPa | 0 mm | - | 188 W/m² | - |
| 1777568172 | 17.78° C | 62% | 1019.9 hPa | 0 mm | - | 183 W/m² | - |
* Rain latest hour (hover to see other rain measurements)
** Current wind speed in m/s (hover to see current wind gust speed)